Weather History for Las Vegas, NV

Change the Weather History Date:

Wednesday, April 9, 2014

  Actual Average Record
Temperature  
Mean Temperature 58 °F -  
Max Temperature 71 °F - - ()
Min Temperature 46 °F - - ()
Degree Days  
Heating Degree Days 6    
Growing Degree Days 8 (Base 50)    
Moisture  
Dew Point 10 °F    
Average Humidity 16    
Maximum Humidity 28    
Minimum Humidity 7    
Precipitation  
Precipitation 0.00 in - - ()
Sea Level Pressure  
Sea Level Pressure 30.37 in    
Wind  
Wind Speed 8 mph (WSW)    
Max Wind Speed 18 mph    
Max Gust Speed 23 mph    
Visibility 10 miles    
Events      
T = Trace of Precipitation, MM = Missing Value Source: NWS Daily Summary

Daily Weather History Graph

Daily Weather History Graph

Search for Another Location

Airport:

Trip Planner

Search our weather history database for the weather conditions in past years. The results will help you decide how hot, cold, wet, or windy it might be!

Date:

Astronomy

Apr. 09, 2014 Rise Set
Actual Time 6:18 AM PDT 7:15 PM PDT
Civil Twilight 5:51 AM PDT 7:41 PM PDT
Nautical Twilight 5:20 AM PDT 8:13 PM PDT
Astronomical Twilight 4:47 AM PDT 8:46 PM PDT
Moon 2:13 PM PDT (4/9) 3:04 AM PDT (4/9)
Length of Visible Light 13h 50m
Length of Day
12h 56m
Waxing Gibbous, 72% of the Moon is Illuminated
Apr 9
Waxing Gibbous
Apr 15
Full
Apr 22
Last Quarter
Apr 28
New
May 6
First Quarter

Hourly Weather History & Observations

Time (PDT) Temp. Windchill Dew Point Humidity Pressure Visibility Wind Dir Wind Speed Gust Speed Precip Events Conditions
12:56 AM 46.9 °F - 12.9 °F 25% 30.43 in 10.0 mi WNW 6.9 mph - N/A   Clear
1:56 AM 46.9 °F - 12.9 °F 25% 30.42 in 10.0 mi WSW 3.5 mph - N/A   Clear
2:56 AM 46.9 °F - 14.0 °F 27% 30.40 in 10.0 mi West 5.8 mph - N/A   Clear
4:56 AM 46.0 °F 43.1 °F 14.0 °F 28% 30.38 in 10.0 mi West 5.8 mph - N/A   Clear
5:56 AM 46.9 °F - 12.9 °F 25% 30.39 in 10.0 mi West 6.9 mph - N/A   Clear
6:56 AM 48.0 °F - 12.0 °F 24% 30.40 in 10.0 mi West 3.5 mph - N/A   Clear
7:56 AM 55.9 °F - 14.0 °F 19% 30.40 in 10.0 mi WSW 8.1 mph - N/A   Clear
8:56 AM 60.1 °F - 12.9 °F 16% 30.41 in 10.0 mi WSW 5.8 mph - N/A   Clear
10:56 AM 66.0 °F - 15.1 °F 14% 30.41 in 10.0 mi SW 10.4 mph - N/A   Clear
11:56 AM 66.0 °F - 14.0 °F 13% 30.40 in 10.0 mi SW 9.2 mph - N/A   Clear
12:56 PM 68.0 °F - 14.0 °F 12% 30.38 in 10.0 mi SSW 10.4 mph 16.1 mph N/A   Clear
1:56 PM 70.0 °F - 12.0 °F 11% 30.36 in 10.0 mi Variable 6.9 mph 21.9 mph N/A   Clear
2:56 PM 71.1 °F - 10.9 °F 10% 30.34 in 10.0 mi SW 16.1 mph 23.0 mph N/A   Clear
3:56 PM 70.0 °F - 3.9 °F 7% 30.32 in 10.0 mi SSW 12.7 mph 23.0 mph N/A   Clear
4:56 PM 71.1 °F - 6.1 °F 8% 30.32 in 10.0 mi West 18.4 mph 23.0 mph N/A   Clear
5:56 PM 69.1 °F - 5.0 °F 8% 30.32 in 10.0 mi WSW 13.8 mph - N/A   Clear
6:56 PM 66.9 °F - 3.0 °F 8% 30.32 in 10.0 mi SW 12.7 mph - N/A   Clear
7:56 PM 59.0 °F - 3.9 °F 11% 30.32 in 10.0 mi WSW 8.1 mph - N/A   Partly Cloudy
8:56 PM 50.0 °F - 5.0 °F 16% 30.33 in 10.0 mi West 6.9 mph - N/A   Clear
9:56 PM 48.0 °F - 5.0 °F 17% 30.33 in 10.0 mi NW 4.6 mph - N/A   Clear
10:56 PM 48.9 °F - 3.9 °F 16% 30.34 in 10.0 mi NW 5.8 mph - N/A   Clear
11:56 PM 50.0 °F - 3.0 °F 15% 30.34 in 10.0 mi West 12.7 mph - N/A   Clear